SCP
0 -0 -0 0 0 1 1 1 0 0 0 2 3 1 1 1 0 0 0 0 0 0 0 0 0 0 0 0 0 0 0 0 0 0 0 0 0 0
0 0 0 0 0 0 0 1 1 0 0 0 0 1 1 1 0 1 0 0 0 0 0 0 0 0 0 0 0 0 0 0 0 0 0 0 0 0
0 0 0 0 0 0 0 0 0 1 0 0 2 1 1 0 0 0 0 0 0 0 0 0 0 0 0 0 0 0 0 0 0 0 0 0 0 0
0 0 0 0 0 0 0 1 1 1 1 0 1 1 1 0 0 0 0 0 0 0 0 0 0 0 0 0 0 0 0 0 0 0 0 0 0 0
0 0 0 0 0 0 0 0 0 1 1 1 1 0 0 0 0 0 0 0 0 0 0 0 0 0 0 0 0 0 0 0 0 0 0 0 0 0
0 0 0 0 0 0 0 0 0 0 1 1 1 0 0 0 0 0 0 0 0 0 0 0 0 0 0 0 0 0 0 0 0 0 0 0 0 0
0 0 0 0 0 0 0 0 0 0 0 1 1 1 0 0 0 0 0 0 0 0 0 0 0 0 0 0 0 0 0 0 0 0 0 0 0 0
0 0 0 0 0 0 0 0 0 0 0 0 1 1 0 0 0 0 0 0 0 0 0 0 0 0 0 0 0 0 0 0 0 0 0 0 0 0
0 0 0 0 0 0 0 0 0 0 0 0 0 0 0 0 0 0 0 0 0 0 0 0 0 0 0 0 0 0 0 0 0 0 0 0 0 0
0 0 0 0 0 0 0 0 0 0 0 0 0 0 0 0 0 0 0 0 0 0 0 0 0 0 0 0 0 0 0 0 0 0 0 0 0 0
0 0 0 0 0 0 0 0 0 0 0 0 0 0 0 0 0 0 0 0 0 0 0 0 0 0 0 0 0 0 0 0 0 0 0 0 0 0
0 0 0 0 0 0 0 0 0 0 0 0 0 0 0 0 0 0 0 0 0 0 0 0 0 0 0 0 0 0 0 0 0 0 0 0 0 0
0 0 0 0 0 0 0 0 0 0 0 0 0 0 0 0 0 0 0 0 1 0 0 0 0 0 0 0 0 0 0 0 0 0 0 0 -0 0
0 0 0 0 0 0 0 0 0 0 0 0 0 0 0 0 0 0 0 0 0 0 0 0 0 0 0 0 0 0 0 0 0 0 0 0 -0 0
0 0 0 0 0 0 0 0 0 0 0 0 0 0 0 0 0 0 0 0 0 0 0 0 0 0 0 0 0 0 0 0 0 0 0 0 0 0
0 0 0 0 0 0 0 0 0 0 0 0 0 0 0 0 0 0 0 0 0 0 0 0 0 0 0 0 0 0 0 0 0 0 0 0 0 0
0 0 0 0 0 0 0 0 0 0 0 0 0 0 0 0 0 0 0 0 0 0 0 0 0 0 0 0 0 0 0 0 0 0 0 0 0 0
0 0 0 0 0 0 0 0 0 0 0 0 0 0 0 0 0 0 0 0 0 0 0 0 0 0 0 0 0 0 0 0 0 0 0 0 0 0
0 0 0 0 0 0 0 0 0 0 0 0 0 0 0 0 0 0 0 0 0 0 0 0 0 0 0 0 0 0 0 0 0 0 0 0 0 0
0 0 0 0 0 0 0 0 0 0 0 0 0 0 0 0 0 0 0 0 0 0 0 0 0 0 0 0 0 0 0 0 0 0 0 0 0 -0
0 0 0 0 0 0 0 0 0 0 0 0 0 0 0 0 0 0 0 0 0 0 0 0 0 0 0 0 0 0 0 0 0 0 0 0 0 0
0 0 0 0 0 0 0 0 0 0 0 0 0 0 0 0 0 0 0 0 0 0 0 0 0 0 0 0 0 0 0 0 0 -0 -0 -0 0 0
0 0 0 0 0 0 0 0 0 0 0 0 0 0 0 0 0 0 0 0 0 0 0 0 0 0 0 0 0 0 0 0 0 0 0 -0 -0 0
Wind_Speed_500mb
25 37 33 37 34 34 39 38 40 44 45 35 32 32 27 32 44 32 35 27 28 23 20 21 21 23 24 22 20 24 27 31 34 38 44 48 52 52
25 35 27 25 29 36 37 41 42 42 41 33 27 33 25 31 41 37 35 26 26 24 21 19 17 19 18 21 21 25 27 29 34 37 44 50 48 45
25 26 30 23 26 28 29 41 43 37 43 39 17 26 34 25 31 39 38 33 31 26 22 19 17 16 17 21 23 28 25 29 33 38 45 47 42 39
22 24 27 26 30 27 25 31 33 40 41 43 32 34 34 34 30 33 35 40 32 28 25 20 17 17 18 22 24 27 25 28 31 37 44 39 37 30
26 28 25 26 27 27 26 29 27 31 35 36 31 33 40 36 35 37 40 37 27 28 28 22 20 17 18 22 24 25 23 25 28 35 41 37 32 20
33 37 29 26 31 32 25 25 28 34 30 34 31 34 39 41 38 42 44 40 33 32 31 26 24 19 18 20 22 23 18 22 25 31 33 31 23 17
45 39 35 27 42 39 39 31 32 27 27 29 31 30 30 36 39 45 48 42 36 29 25 31 28 23 19 18 16 16 13 17 21 27 25 23 16 20
43 41 41 42 45 29 38 33 39 39 36 26 31 30 35 33 35 39 45 48 43 42 31 23 25 21 17 16 12 14 13 13 17 22 19 17 13 19
37 33 33 31 34 33 35 32 26 30 39 39 38 28 39 17 38 43 42 50 46 28 49 32 29 20 20 29 22 18 10 10 12 18 13 12 9 19
32 33 35 33 33 36 42 41 36 32 32 34 33 34 32 42 50 33 37 39 35 33 33 41 39 26 27 29 17 15 12 9 8 13 8 7 5 15
29 29 32 34 35 40 48 42 40 40 36 41 49 49 46 39 41 49 35 44 44 46 47 24 34 27 32 28 18 15 13 7 4 10 3 4 6 11
29 27 29 34 39 42 39 38 40 36 38 42 41 41 44 42 43 47 41 39 47 36 49 46 45 42 20 23 25 17 16 7 2 7 6 4 10 14
31 28 24 37 37 38 40 39 33 41 48 50 43 38 42 40 36 42 52 60 43 44 28 58 48 47 24 20 27 20 19 9 7 6 9 8 8 10
33 30 30 43 52 54 54 50 48 45 49 40 41 48 46 41 40 48 44 52 49 51 43 70 54 52 40 26 25 22 19 8 9 5 11 15 16 16
34 37 44 46 48 54 51 51 47 42 33 34 38 42 48 46 43 49 49 44 52 52 49 47 60 52 48 32 36 37 32 24 21 17 11 22 21 17
47 46 43 48 47 43 42 41 38 36 37 37 40 39 42 47 49 48 46 45 48 57 47 50 59 47 38 43 46 43 34 21 27 21 17 25 25 23
59 61 56 47 40 36 37 39 38 35 41 48 45 43 37 44 47 48 52 46 48 59 62 60 70 53 49 49 39 35 37 30 29 25 24 26 32 30
58 63 62 51 44 41 38 36 35 37 39 39 44 47 48 45 46 49 54 50 50 53 62 65 72 57 59 50 45 38 36 34 32 22 20 33 35 32
62 67 68 58 50 44 42 38 37 35 36 41 45 45 51 46 41 47 52 52 52 51 64 73 72 70 70 63 53 48 39 38 34 30 23 26 37 34
59 58 55 54 54 48 43 40 38 36 36 42 45 44 49 43 48 43 50 51 53 57 61 66 78 86 83 76 59 54 42 37 38 37 41 47 42 39
42 45 45 47 45 44 44 44 44 42 38 39 42 48 48 45 53 39 46 52 54 62 60 63 80 66 56 56 52 61 50 40 38 32 43 37 47 42
42 39 39 40 44 43 43 44 43 44 41 42 48 46 36 53 58 39 40 52 54 66 53 62 74 78 80 75 72 63 60 51 46 46 35 41 51 44
44 42 42 40 39 41 38 43 40 43 40 36 47 44 34 50 53 40 41 47 56 64 58 65 73 82 82 79 59 64 62 62 55 46 46 40 41 28
Wind_Direction_500mb
316 316 300 288 262 271 256 266 267 279 271 252 224 249 246 220 241 232 248 249 248 255 265 272 279 279 287 302 303 311 316 325 329 327 332 334 332 331
312 303 319 315 301 282 263 253 248 269 270 276 246 233 250 218 233 226 247 247 250 243 257 270 278 281 286 294 304 308 315 324 328 334 334 338 337 335
303 311 308 303 303 296 288 268 256 254 266 263 248 226 242 244 230 235 241 245 249 245 246 254 266 280 281 290 298 303 317 324 329 337 339 341 343 343
291 305 302 301 297 303 299 283 269 255 265 264 261 247 243 254 244 240 241 245 238 233 233 240 257 278 282 287 294 300 311 316 333 339 343 346 348 1
281 276 288 295 299 301 297 301 285 279 267 267 261 254 250 246 244 250 245 244 234 231 225 232 245 270 285 290 293 299 308 316 334 342 347 355 355 15
254 257 264 286 289 278 275 290 299 287 283 270 261 268 252 253 248 241 239 234 214 236 223 224 234 252 276 289 294 289 305 314 335 347 354 5 17 44
277 273 275 262 270 270 282 277 274 290 290 284 266 256 239 258 248 242 233 228 216 213 228 222 222 241 263 282 296 293 303 314 338 353 358 11 33 31
283 280 274 267 267 274 273 277 273 278 276 288 271 257 246 247 269 254 236 222 216 209 207 220 220 230 261 280 303 313 300 312 340 358 2 15 37 30
284 282 278 269 262 255 258 271 276 268 272 280 275 269 254 262 260 256 238 230 217 228 193 196 223 200 225 246 284 291 283 300 342 2 3 25 46 38
289 283 282 277 271 262 255 258 260 260 261 275 278 271 264 249 256 238 257 232 216 209 192 193 214 190 211 250 261 275 261 277 349 6 6 42 66 53
297 287 278 273 267 260 257 257 257 256 253 255 258 262 274 265 255 242 231 218 201 205 190 187 195 180 207 250 250 254 249 255 1 11 49 92 115 78
302 300 295 277 265 268 269 263 261 262 257 256 264 263 270 269 253 244 222 218 205 197 209 185 191 178 179 212 262 245 232 210 107 34 122 152 165 75
296 295 285 281 276 260 261 264 263 254 243 238 251 246 250 257 256 245 233 220 228 213 221 189 186 190 176 188 246 247 219 186 163 34 132 146 139 101
297 291 282 276 275 274 271 269 270 264 249 249 243 244 248 249 244 260 238 230 222 222 227 198 203 192 187 199 214 216 196 218 135 322 124 136 128 130
289 281 282 287 283 277 279 270 261 261 256 253 245 245 243 245 241 250 255 230 229 228 215 208 206 204 203 225 195 196 182 181 171 196 170 154 152 141
295 292 279 277 291 295 294 269 263 257 252 246 246 244 245 244 246 240 250 237 227 223 220 203 199 202 198 191 208 190 178 175 169 198 165 185 171 154
282 282 285 283 281 279 278 274 268 259 246 242 245 246 241 237 241 238 236 237 227 221 216 209 201 200 197 199 192 187 174 170 163 193 171 170 162 160
275 275 276 275 272 267 265 264 259 258 254 246 242 231 238 241 236 234 237 234 226 224 227 222 204 187 184 182 186 177 181 165 171 163 166 164 165 159
266 269 271 272 269 265 261 260 260 256 253 249 242 235 226 246 238 235 232 224 222 228 223 215 208 191 183 176 178 179 176 170 162 163 164 172 167 166
271 267 267 262 266 265 257 257 258 256 250 246 242 235 238 241 239 239 232 226 217 220 220 214 202 196 197 188 173 175 169 178 157 175 174 183 172 165
258 260 263 267 259 257 252 251 253 253 251 248 242 233 237 243 239 239 233 229 215 219 217 216 207 206 209 201 195 175 169 173 165 194 193 189 183 173
269 263 260 258 258 260 254 247 248 246 251 249 245 227 234 244 236 247 237 221 215 219 224 212 197 196 200 208 197 187 178 176 175 192 183 176 181 178
259 257 257 251 256 259 250 243 246 242 235 245 237 225 238 233 240 237 240 228 214 217 220 216 211 203 209 206 210 200 187 182 183 195 175 175 178 194
Wind_Speed_850mb
25 37 33 37 34 34 39 38 40 44 45 35 32 32 27 32 44 32 35 27 28 23 20 21 21 23 24 22 20 24 27 31 34 38 44 48 52 52
25 35 27 25 29 36 37 41 42 42 41 33 27 33 25 31 41 37 35 26 26 24 21 19 17 19 18 21 21 25 27 29 34 37 44 50 48 45
25 26 30 23 26 28 29 41 43 37 43 39 17 26 34 25 31 39 38 33 31 26 22 19 17 16 17 21 23 28 25 29 33 38 45 47 42 39
22 24 27 26 30 27 25 31 33 40 41 43 32 34 34 34 30 33 35 40 32 28 25 20 17 17 18 22 24 27 25 28 31 37 44 39 37 30
26 28 25 26 27 27 26 29 27 31 35 36 31 33 40 36 35 37 40 37 27 28 28 22 20 17 18 22 24 25 23 25 28 35 41 37 32 20
33 37 29 26 31 32 25 25 28 34 30 34 31 34 39 41 38 42 44 40 33 32 31 26 24 19 18 20 22 23 18 22 25 31 33 31 23 17
45 39 35 27 42 39 39 31 32 27 27 29 31 30 30 36 39 45 48 42 36 29 25 31 28 23 19 18 16 16 13 17 21 27 25 23 16 20
43 41 41 42 45 29 38 33 39 39 36 26 31 30 35 33 35 39 45 48 43 42 31 23 25 21 17 16 12 14 13 13 17 22 19 17 13 19
37 33 33 31 34 33 35 32 26 30 39 39 38 28 39 17 38 43 42 50 46 28 49 32 29 20 20 29 22 18 10 10 12 18 13 12 9 19
32 33 35 33 33 36 42 41 36 32 32 34 33 34 32 42 50 33 37 39 35 33 33 41 39 26 27 29 17 15 12 9 8 13 8 7 5 15
29 29 32 34 35 40 48 42 40 40 36 41 49 49 46 39 41 49 35 44 44 46 47 24 34 27 32 28 18 15 13 7 4 10 3 4 6 11
29 27 29 34 39 42 39 38 40 36 38 42 41 41 44 42 43 47 41 39 47 36 49 46 45 42 20 23 25 17 16 7 2 7 6 4 10 14
31 28 24 37 37 38 40 39 33 41 48 50 43 38 42 40 36 42 52 60 43 44 28 58 48 47 24 20 27 20 19 9 7 6 9 8 8 10
33 30 30 43 52 54 54 50 48 45 49 40 41 48 46 41 40 48 44 52 49 51 43 70 54 52 40 26 25 22 19 8 9 5 11 15 16 16
34 37 44 46 48 54 51 51 47 42 33 34 38 42 48 46 43 49 49 44 52 52 49 47 60 52 48 32 36 37 32 24 21 17 11 22 21 17
47 46 43 48 47 43 42 41 38 36 37 37 40 39 42 47 49 48 46 45 48 57 47 50 59 47 38 43 46 43 34 21 27 21 17 25 25 23
59 61 56 47 40 36 37 39 38 35 41 48 45 43 37 44 47 48 52 46 48 59 62 60 70 53 49 49 39 35 37 30 29 25 24 26 32 30
58 63 62 51 44 41 38 36 35 37 39 39 44 47 48 45 46 49 54 50 50 53 62 65 72 57 59 50 45 38 36 34 32 22 20 33 35 32
62 67 68 58 50 44 42 38 37 35 36 41 45 45 51 46 41 47 52 52 52 51 64 73 72 70 70 63 53 48 39 38 34 30 23 26 37 34
59 58 55 54 54 48 43 40 38 36 36 42 45 44 49 43 48 43 50 51 53 57 61 66 78 86 83 76 59 54 42 37 38 37 41 47 42 39
42 45 45 47 45 44 44 44 44 42 38 39 42 48 48 45 53 39 46 52 54 62 60 63 80 66 56 56 52 61 50 40 38 32 43 37 47 42
42 39 39 40 44 43 43 44 43 44 41 42 48 46 36 53 58 39 40 52 54 66 53 62 74 78 80 75 72 63 60 51 46 46 35 41 51 44
44 42 42 40 39 41 38 43 40 43 40 36 47 44 34 50 53 40 41 47 56 64 58 65 73 82 82 79 59 64 62 62 55 46 46 40 41 28
Wind_Direction_850mb
316 316 300 288 262 271 256 266 267 279 271 252 224 249 246 220 241 232 248 249 248 255 265 272 279 279 287 302 303 311 316 325 329 327 332 334 332 331
312 303 319 315 301 282 263 253 248 269 270 276 246 233 250 218 233 226 247 247 250 243 257 270 278 281 286 294 304 308 315 324 328 334 334 338 337 335
303 311 308 303 303 296 288 268 256 254 266 263 248 226 242 244 230 235 241 245 249 245 246 254 266 280 281 290 298 303 317 324 329 337 339 341 343 343
291 305 302 301 297 303 299 283 269 255 265 264 261 247 243 254 244 240 241 245 238 233 233 240 257 278 282 287 294 300 311 316 333 339 343 346 348 1
281 276 288 295 299 301 297 301 285 279 267 267 261 254 250 246 244 250 245 244 234 231 225 232 245 270 285 290 293 299 308 316 334 342 347 355 355 15
254 257 264 286 289 278 275 290 299 287 283 270 261 268 252 253 248 241 239 234 214 236 223 224 234 252 276 289 294 289 305 314 335 347 354 5 17 44
277 273 275 262 270 270 282 277 274 290 290 284 266 256 239 258 248 242 233 228 216 213 228 222 222 241 263 282 296 293 303 314 338 353 358 11 33 31
283 280 274 267 267 274 273 277 273 278 276 288 271 257 246 247 269 254 236 222 216 209 207 220 220 230 261 280 303 313 300 312 340 358 2 15 37 30
284 282 278 269 262 255 258 271 276 268 272 280 275 269 254 262 260 256 238 230 217 228 193 196 223 200 225 246 284 291 283 300 342 2 3 25 46 38
289 283 282 277 271 262 255 258 260 260 261 275 278 271 264 249 256 238 257 232 216 209 192 193 214 190 211 250 261 275 261 277 349 6 6 42 66 53
297 287 278 273 267 260 257 257 257 256 253 255 258 262 274 265 255 242 231 218 201 205 190 187 195 180 207 250 250 254 249 255 1 11 49 92 115 78
302 300 295 277 265 268 269 263 261 262 257 256 264 263 270 269 253 244 222 218 205 197 209 185 191 178 179 212 262 245 232 210 107 34 122 152 165 75
296 295 285 281 276 260 261 264 263 254 243 238 251 246 250 257 256 245 233 220 228 213 221 189 186 190 176 188 246 247 219 186 163 34 132 146 139 101
297 291 282 276 275 274 271 269 270 264 249 249 243 244 248 249 244 260 238 230 222 222 227 198 203 192 187 199 214 216 196 218 135 322 124 136 128 130
289 281 282 287 283 277 279 270 261 261 256 253 245 245 243 245 241 250 255 230 229 228 215 208 206 204 203 225 195 196 182 181 171 196 170 154 152 141
295 292 279 277 291 295 294 269 263 257 252 246 246 244 245 244 246 240 250 237 227 223 220 203 199 202 198 191 208 190 178 175 169 198 165 185 171 154
282 282 285 283 281 279 278 274 268 259 246 242 245 246 241 237 241 238 236 237 227 221 216 209 201 200 197 199 192 187 174 170 163 193 171 170 162 160
275 275 276 275 272 267 265 264 259 258 254 246 242 231 238 241 236 234 237 234 226 224 227 222 204 187 184 182 186 177 181 165 171 163 166 164 165 159
266 269 271 272 269 265 261 260 260 256 253 249 242 235 226 246 238 235 232 224 222 228 223 215 208 191 183 176 178 179 176 170 162 163 164 172 167 166
271 267 267 262 266 265 257 257 258 256 250 246 242 235 238 241 239 239 232 226 217 220 220 214 202 196 197 188 173 175 169 178 157 175 174 183 172 165
258 260 263 267 259 257 252 251 253 253 251 248 242 233 237 243 239 239 233 229 215 219 217 216 207 206 209 201 195 175 169 173 165 194 193 189 183 173
269 263 260 258 258 260 254 247 248 246 251 249 245 227 234 244 236 247 237 221 215 219 224 212 197 196 200 208 197 187 178 176 175 192 183 176 181 178
259 257 257 251 256 259 250 243 246 242 235 245 237 225 238 233 240 237 240 228 214 217 220 216 211 203 209 206 210 200 187 182 183 195 175 175 178 194